Dades meteomassalio
Diari Summary for Gener 8, 2017 Units:  English    Metric   Both
« Previous Day
Next Day »
Diari Semanal Mensual Anual Personalitzat
  Maxima: Minima: Mijana:
Temperatura: 53.4 °F 25 °F 37 °F
Rosada: 37.8 °F 18.9 °F 25 °F
Humitat: 84 % 28 % 65 %
Velocitat del vent: 0 mph 0 mph 0 mph
Racha vent: 0 mph - -
Vent:- - North
Pressio: 30.5 in 30.4 in -
Pluja: 0 in    
Historical Graphs
 
 
Tabular Data for Gener 8, 2017
Time Temperature Dew Point Pressure Wind Wind Speed Wind Gust Humidity Rainfall Rate (Hourly) solar Conditions
00:04 28.2 °F 23.4 °F 30.5 in Calm     82 % 0 in 0.0 W/m2 CLR
00:09 28 °F 23.2 °F 30.5 in Calm     82 % 0 in 0.0 W/m2 CLR
00:14 27.9 °F 23 °F 30.5 in Calm     82 % 0 in 0.0 W/m2 CLR
00:19 27.7 °F 23.2 °F 30.5 in Calm     83 % 0 in 0.0 W/m2 CLR
00:24 27.7 °F 23.2 °F 30.5 in Calm     83 % 0 in 0.0 W/m2 CLR
00:29 27.7 °F 23.2 °F 30.5 in Calm     83 % 0 in 0.0 W/m2 CLR
00:34 27.3 °F 22.8 °F 30.5 in Calm     83 % 0 in 0.0 W/m2 CLR
00:39 27.5 °F 23.4 °F 30.5 in Calm     84 % 0 in 0.0 W/m2 CLR
00:44 27.9 °F 23.4 °F 30.5 in Calm     83 % 0 in 0.0 W/m2 CLR
00:49 28 °F 23.2 °F 30.5 in Calm     82 % 0 in 0.0 W/m2 CLR
00:54 28 °F 23.2 °F 30.5 in Calm     82 % 0 in 0.0 W/m2 CLR
00:59 27.9 °F 23.2 °F 30.5 in Calm     82 % 0 in 0.0 W/m2 CLR
01:04 27.7 °F 22.8 °F 30.5 in Calm     82 % 0 in 0.0 W/m2 CLR
01:09 27.3 °F 22.6 °F 30.5 in Calm     82 % 0 in 0.0 W/m2 CLR
01:14 27.5 °F 23 °F 30.5 in Calm     83 % 0 in 0.0 W/m2 CLR
01:19 27.5 °F 22.6 °F 30.5 in Calm     82 % 0 in 0.0 W/m2 CLR
01:24 27.5 °F 23 °F 30.5 in Calm     83 % 0 in 0.0 W/m2 CLR
01:29 27.5 °F 22.6 °F 30.5 in Calm     82 % 0 in 0.0 W/m2 CLR
01:34 27.5 °F 22.6 °F 30.5 in Calm     82 % 0 in 0.0 W/m2 CLR
01:39 27.7 °F 22.8 °F 30.5 in Calm     82 % 0 in 0.0 W/m2 CLR
01:44 27.7 °F 22.8 °F 30.5 in Calm     82 % 0 in 0.0 W/m2 CLR
01:49 27.7 °F 22.5 °F 30.5 in Calm     81 % 0 in 0.0 W/m2 CLR
01:54 27.7 °F 22.6 °F 30.5 in Calm     81 % 0 in 0.0 W/m2 CLR
01:59 27.9 °F 22.6 °F 30.5 in Calm     81 % 0 in 0.0 W/m2 CLR
02:04 27.9 °F 22.5 °F 30.5 in Calm     80 % 0 in 0.0 W/m2 CLR
02:09 27.9 °F 22.5 °F 30.5 in Calm     80 % 0 in 0.0 W/m2 CLR
02:14 27.7 °F 22.3 °F 30.5 in Calm     80 % 0 in 0.0 W/m2 CLR
02:19 27.9 °F 22.5 °F 30.5 in Calm     80 % 0 in 0.0 W/m2 CLR
02:24 27.7 °F 22.3 °F 30.5 in Calm     80 % 0 in 0.0 W/m2 CLR
02:29 27.7 °F 22.3 °F 30.5 in Calm     80 % 0 in 0.0 W/m2 CLR
02:34 27.7 °F 22.5 °F 30.5 in Calm     81 % 0 in 0.0 W/m2 CLR
02:39 27.5 °F 22.5 °F 30.5 in Calm     81 % 0 in 0.0 W/m2 CLR
02:44 27.7 °F 22.5 °F 30.5 in Calm     81 % 0 in 0.0 W/m2 CLR
02:49 27.7 °F 22.5 °F 30.5 in Calm     81 % 0 in 0.0 W/m2 CLR
02:54 27.3 °F 22.3 °F 30.5 in Calm     81 % 0 in 0.0 W/m2 CLR
02:59 27.1 °F 22.1 °F 30.5 in Calm     81 % 0 in 0.0 W/m2 CLR
03:04 27.3 °F 22.3 °F 30.5 in Calm     81 % 0 in 0.0 W/m2 CLR
03:09 27.7 °F 22.3 °F 30.5 in Calm     80 % 0 in 0.0 W/m2 CLR
03:14 27.7 °F 22.3 °F 30.5 in Calm     80 % 0 in 0.0 W/m2 CLR
03:19 27.5 °F 22.1 °F 30.5 in Calm     80 % 0 in 0.0 W/m2 CLR
03:24 27.5 °F 22.1 °F 30.5 in Calm     80 % 0 in 0.0 W/m2 CLR
03:29 27.3 °F 21.9 °F 30.5 in Calm     80 % 0 in 0.0 W/m2 CLR
03:34 27.3 °F 21.9 °F 30.5 in Calm     80 % 0 in 0.0 W/m2 CLR
03:39 27.1 °F 22.1 °F 30.5 in Calm     81 % 0 in 0.0 W/m2 CLR
03:44 27 °F 21.9 °F 30.5 in Calm     81 % 0 in 0.0 W/m2 CLR
03:49 27.1 °F 22.1 °F 30.5 in Calm     81 % 0 in 0.0 W/m2 CLR
03:54 27.7 °F 22.3 °F 30.5 in Calm     80 % 0 in 0.0 W/m2 CLR
03:59 27.7 °F 21.9 °F 30.5 in Calm     79 % 0 in 0.0 W/m2 CLR
04:04 27.1 °F 21.7 °F 30.5 in Calm     80 % 0 in 0.0 W/m2 CLR
04:09 26.8 °F 21.7 °F 30.5 in Calm     81 % 0 in 0.0 W/m2 CLR
04:14 26.6 °F 21.7 °F 30.5 in Calm     82 % 0 in 0.0 W/m2 CLR
04:19 26.2 °F 21.6 °F 30.5 in Calm     82 % 0 in 0.0 W/m2 CLR
04:25 26.4 °F 21.9 °F 30.5 in Calm     83 % 0 in 0.0 W/m2 CLR
04:30 26.4 °F 21.7 °F 30.5 in Calm     82 % 0 in 0.0 W/m2 CLR
04:35 26.6 °F 21.7 °F 30.5 in Calm     82 % 0 in 0.0 W/m2 CLR
04:40 27 °F 21.7 °F 30.5 in Calm     81 % 0 in 0.0 W/m2 CLR
04:45 27 °F 21.9 °F 30.5 in Calm     81 % 0 in 0.0 W/m2 CLR
04:50 27 °F 21.7 °F 30.5 in Calm     81 % 0 in 0.0 W/m2 CLR
04:55 26.8 °F 21.7 °F 30.5 in Calm     81 % 0 in 0.0 W/m2 CLR
05:00 26.6 °F 21.6 °F 30.5 in Calm     81 % 0 in 0.0 W/m2 CLR
05:05 26.6 °F 21.6 °F 30.5 in Calm     81 % 0 in 0.0 W/m2 CLR
05:10 26.8 °F 21.7 °F 30.5 in Calm     81 % 0 in 0.0 W/m2 CLR
05:15 26.8 °F 21.7 °F 30.5 in Calm     81 % 0 in 0.0 W/m2 CLR
05:20 26.4 °F 21.4 °F 30.5 in Calm     81 % 0 in 0.0 W/m2 CLR
05:25 25.9 °F 21.2 °F 30.5 in Calm     82 % 0 in 0.0 W/m2 CLR
05:30 25.5 °F 21.2 °F 30.5 in Calm     83 % 0 in 0.0 W/m2 CLR
05:35 25.3 °F 21.2 °F 30.5 in Calm     84 % 0 in 0.0 W/m2 CLR
05:40 25.5 °F 21.4 °F 30.5 in Calm     84 % 0 in 0.0 W/m2 CLR
05:45 25.9 °F 21.7 °F 30.5 in Calm     84 % 0 in 0.0 W/m2 CLR
05:50 26.1 °F 21.6 °F 30.5 in Calm     83 % 0 in 0.0 W/m2 CLR
05:55 26.2 °F 21.7 °F 30.5 in Calm     83 % 0 in 0.0 W/m2 CLR
06:00 26.2 °F 21.7 °F 30.5 in Calm     83 % 0 in 0.0 W/m2 CLR
06:05 26.4 °F 21.7 °F 30.5 in Calm     82 % 0 in 0.0 W/m2 CLR
06:10 26.2 °F 21.6 °F 30.5 in Calm     82 % 0 in 0.0 W/m2 CLR
06:15 26.2 °F 21.6 °F 30.5 in Calm     82 % 0 in 0.0 W/m2 CLR
06:20 26.1 °F 21.4 °F 30.5 in Calm     82 % 0 in 0.0 W/m2 CLR
06:25 26.2 °F 21.6 °F 30.5 in Calm     82 % 0 in 0.0 W/m2 CLR
06:30 26.2 °F 21.7 °F 30.5 in Calm     83 % 0 in 0.0 W/m2 CLR
06:35 27 °F 21.7 °F 30.5 in Calm     81 % 0 in 0.0 W/m2 CLR
06:40 27 °F 21.6 °F 30.5 in Calm     80 % 0 in 0.0 W/m2 CLR
06:45 26.8 °F 21.4 °F 30.5 in Calm     80 % 0 in 0.0 W/m2 CLR
06:50 26.8 °F 21.4 °F 30.5 in Calm     80 % 0 in 0.0 W/m2 CLR
06:55 26.6 °F 21.4 °F 30.5 in Calm     80 % 0 in 0.0 W/m2 CLR
07:00 26.6 °F 21.4 °F 30.5 in Calm     80 % 0 in 0.0 W/m2 CLR
07:05 26.8 °F 21.6 °F 30.5 in Calm     80 % 0 in 0.0 W/m2 CLR
07:10 26.8 °F 21.6 °F 30.5 in Calm     80 % 0 in 0.0 W/m2 CLR
07:15 26.8 °F 21.6 °F 30.5 in Calm     80 % 0 in 0.0 W/m2 CLR
07:20 26.8 °F 21.6 °F 30.5 in Calm     80 % 0 in 0.0 W/m2 CLR
07:25 26.4 °F 21.2 °F 30.5 in Calm     80 % 0 in 0.0 W/m2 CLR
07:30 26.1 °F 21 °F 30.5 in Calm     81 % 0 in 0.0 W/m2 CLR
07:35 25.9 °F 21 °F 30.5 in Calm     82 % 0 in 0.0 W/m2 CLR
07:40 25.5 °F 20.8 °F 30.5 in Calm     82 % 0 in 0.0 W/m2 CLR
07:45 25.5 °F 21.2 °F 30.5 in Calm     83 % 0 in 0.0 W/m2 CLR
07:50 25.9 °F 21.2 °F 30.5 in Calm     82 % 0 in 0.0 W/m2 CLR
07:55 26.1 °F 21.4 °F 30.5 in Calm     82 % 0 in 0.0 W/m2 CLR
08:00 25.9 °F 21.2 °F 30.5 in Calm     82 % 0 in 0.0 W/m2 CLR
08:05 25.7 °F 21 °F 30.5 in Calm     82 % 0 in 0.0 W/m2 CLR
08:10 25.3 °F 21 °F 30.5 in Calm     83 % 0 in 0.0 W/m2 CLR
08:15 25.3 °F 20.8 °F 30.5 in Calm     83 % 0 in 0.0 W/m2 CLR
08:20 25.2 °F 20.8 °F 30.5 in Calm     83 % 0 in 0.0 W/m2 CLR
08:25 25 °F 20.8 °F 30.5 in Calm     84 % 0 in 5.0 W/m2 BKN
08:30 25.2 °F 20.8 °F 30.5 in Calm     84 % 0 in 7.0 W/m2 BKN
08:35 25.3 °F 21 °F 30.5 in Calm     84 % 0 in 11.0 W/m2 BKN
08:40 25.3 °F 21.2 °F 30.5 in Calm     84 % 0 in 12.0 W/m2 BKN
08:45 25.9 °F 21.4 °F 30.5 in Calm     83 % 0 in 16.0 W/m2 BKN
08:50 26.2 °F 21.7 °F 30.5 in Calm     83 % 0 in 18.0 W/m2 BKN
08:55 26.8 °F 21.7 °F 30.5 in Calm     81 % 0 in 21.0 W/m2 BKN
09:00 27 °F 21.9 °F 30.5 in Calm     81 % 0 in 26.0 W/m2 BKN
09:05 26.8 °F 21.7 °F 30.5 in Calm     81 % 0 in 33.0 W/m2 BKN
09:10 27.1 °F 22.5 °F 30.5 in Calm     82 % 0 in 42.0 W/m2 BKN
09:15 27.7 °F 22.6 °F 30.5 in Calm     81 % 0 in 53.0 W/m2 BKN
09:20 27.9 °F 22.5 °F 30.5 in Calm     80 % 0 in 62.0 W/m2 BKN
09:25 28 °F 22.5 °F 30.5 in Calm     79 % 0 in 67.0 W/m2 BKN
09:30 28.6 °F 23.2 °F 30.5 in Calm     80 % 0 in 72.0 W/m2 BKN
09:35 29.3 °F 23.9 °F 30.5 in Calm     80 % 0 in 77.0 W/m2 BKN
09:40 29.8 °F 24.4 °F 30.5 in Calm     80 % 0 in 113.0 W/m2 BKN
09:45 30.4 °F 24.4 °F 30.5 in Calm     78 % 0 in 125.0 W/m2 BKN
09:50 30.9 °F 24.4 °F 30.5 in Calm     77 % 0 in 123.0 W/m2 BKN
09:55 31.5 °F 24.4 °F 30.5 in Calm     75 % 0 in 155.0 W/m2 BKN
10:00 32.2 °F 24.8 °F 30.5 in Calm     74 % 0 in 169.0 W/m2 BKN
10:05 32.9 °F 25 °F 30.5 in Calm     72 % 0 in 162.0 W/m2 SCT
10:10 33.3 °F 25 °F 30.5 in Calm     71 % 0 in 197.0 W/m2 BKN
10:15 33.8 °F 25.3 °F 30.5 in Calm     71 % 0 in 130.0 W/m2 BKN
10:20 34.5 °F 26.2 °F 30.5 in Calm     71 % 0 in 221.0 W/m2 SCT
10:25 35.4 °F 26.6 °F 30.5 in Calm     70 % 0 in 234.0 W/m2 SCT
10:30 36.7 °F 27.3 °F 30.5 in Calm     69 % 0 in 250.0 W/m2 SCT
10:35 37.8 °F 27.3 °F 30.5 in Calm     66 % 0 in 262.0 W/m2 SCT
10:40 38.7 °F 27.1 °F 30.5 in Calm     63 % 0 in 272.0 W/m2 SCT
10:45 39.6 °F 26.8 °F 30.5 in Calm     60 % 0 in 281.0 W/m2 SCT
10:50 40.3 °F 26.8 °F 30.5 in Calm     58 % 0 in 290.0 W/m2 SCT
10:55 41.2 °F 27 °F 30.5 in Calm     57 % 0 in 302.0 W/m2 SCT
11:01 41.9 °F 27 °F 30.5 in Calm     55 % 0 in 311.0 W/m2 SCT
11:06 42.3 °F 26.8 °F 30.5 in Calm     54 % 0 in 320.0 W/m2 FEW
11:11 42.4 °F 27 °F 30.5 in Calm     54 % 0 in 325.0 W/m2 FEW
11:16 43.2 °F 26.8 °F 30.5 in Calm     52 % 0 in 336.0 W/m2 FEW
11:21 43.5 °F 26.6 °F 30.5 in Calm     51 % 0 in 346.0 W/m2 FEW
11:26 44.1 °F 27.5 °F 30.5 in Calm     52 % 0 in 352.0 W/m2 FEW
11:31 44.8 °F 27.7 °F 30.5 in Calm     51 % 0 in 359.0 W/m2 FEW
11:36 45.3 °F 26.8 °F 30.5 in Calm     48 % 0 in 366.0 W/m2 FEW
11:41 46.6 °F 27.9 °F 30.5 in Calm     48 % 0 in 374.0 W/m2 FEW
11:46 47.8 °F 24.6 °F 30.5 in Calm     40 % 0 in 381.0 W/m2 FEW
11:51 49.1 °F 21.2 °F 30.5 in Calm     33 % 0 in 387.0 W/m2 FEW
11:56 49.6 °F 21 °F 30.5 in Calm     32 % 0 in 392.0 W/m2 FEW
12:01 50 °F 21.9 °F 30.5 in Calm     33 % 0 in 399.0 W/m2 FEW
12:06 49.8 °F 21.2 °F 30.5 in Calm     32 % 0 in 404.0 W/m2 FEW
12:11 50.2 °F 19.9 °F 30.5 in Calm     30 % 0 in 410.0 W/m2 FEW
12:16 50.5 °F 20.3 °F 30.4 in Calm     30 % 0 in 413.0 W/m2 CLR
12:21 50.9 °F 19.8 °F 30.4 in Calm     29 % 0 in 417.0 W/m2 CLR
12:26 50.7 °F 19.6 °F 30.4 in Calm     29 % 0 in 418.0 W/m2 CLR
12:31 50.9 °F 18.9 °F 30.4 in Calm     28 % 0 in 422.0 W/m2 CLR
12:36 51.3 °F 20.1 °F 30.4 in Calm     29 % 0 in 425.0 W/m2 CLR
12:41 51.1 °F 19.9 °F 30.4 in Calm     29 % 0 in 427.0 W/m2 CLR
12:46 50.9 °F 19.8 °F 30.4 in Calm     29 % 0 in 432.0 W/m2 CLR
12:51 51.1 °F 19 °F 30.4 in Calm     28 % 0 in 436.0 W/m2 CLR
12:56 51.1 °F 20.7 °F 30.4 in Calm     30 % 0 in 436.0 W/m2 CLR
13:01 51.1 °F 19.8 °F 30.4 in Calm     29 % 0 in 434.0 W/m2 CLR
13:06 51.1 °F 20.7 °F 30.4 in Calm     30 % 0 in 436.0 W/m2 CLR
13:11 51.1 °F 21.4 °F 30.4 in Calm     31 % 0 in 439.0 W/m2 CLR
13:16 51.3 °F 20.1 °F 30.4 in Calm     29 % 0 in 434.0 W/m2 CLR
13:21 51.6 °F 21 °F 30.4 in Calm     30 % 0 in 438.0 W/m2 CLR
13:26 51.6 °F 21 °F 30.4 in Calm     30 % 0 in 434.0 W/m2 CLR
13:31 51.4 °F 20.1 °F 30.4 in Calm     29 % 0 in 432.0 W/m2 CLR
13:36 51.4 °F 21 °F 30.4 in Calm     30 % 0 in 429.0 W/m2 CLR
13:41 51.6 °F 21.2 °F 30.4 in Calm     30 % 0 in 427.0 W/m2 CLR
13:46 52 °F 22.3 °F 30.4 in Calm     31 % 0 in 427.0 W/m2 CLR
13:51 52 °F 20.7 °F 30.4 in Calm     29 % 0 in 422.0 W/m2 CLR
13:56 52.2 °F 21.7 °F 30.4 in Calm     30 % 0 in 418.0 W/m2 CLR
14:01 52.5 °F 21 °F 30.4 in Calm     29 % 0 in 415.0 W/m2 CLR
14:06 52.3 °F 21.7 °F 30.4 in Calm     30 % 0 in 411.0 W/m2 CLR
14:25 52.3 °F 21.7 °F 30.4 in Calm     30 % 0 in 396.0 W/m2 CLR
14:47 52.3 °F 23.4 °F 30.4 in Calm     32 % 0 in 369.0 W/m2 CLR
15:29 53.2 °F 23.4 °F 30.4 in Calm     31 % 0 in 292.0 W/m2 CLR
15:35 53.4 °F 24.3 °F 30.4 in Calm     32 % 0 in 281.0 W/m2 CLR
15:40 53.4 °F 24.3 °F 30.4 in Calm     32 % 0 in 271.0 W/m2 CLR
15:45 53.2 °F 24.1 °F 30.4 in Calm     32 % 0 in 260.0 W/m2 CLR
15:50 53.1 °F 23.9 °F 30.4 in Calm     32 % 0 in 243.0 W/m2 CLR
15:55 52.9 °F 25.3 °F 30.4 in Calm     34 % 0 in 230.0 W/m2 CLR
16:00 52.9 °F 25.9 °F 30.4 in Calm     35 % 0 in 220.0 W/m2 CLR
16:05 52.5 °F 25.5 °F 30.4 in Calm     35 % 0 in 204.0 W/m2 CLR
16:10 52 °F 26.4 °F 30.4 in Calm     37 % 0 in 190.0 W/m2 CLR
16:15 51.3 °F 26.4 °F 30.4 in Calm     38 % 0 in 178.0 W/m2 CLR
16:20 50.9 °F 26.2 °F 30.4 in Calm     38 % 0 in 165.0 W/m2 CLR
16:25 50.7 °F 26.6 °F 30.4 in Calm     39 % 0 in 151.0 W/m2 CLR
16:30 50.7 °F 26.1 °F 30.4 in Calm     38 % 0 in 141.0 W/m2 CLR
16:35 50.7 °F 26.1 °F 30.4 in Calm     38 % 0 in 127.0 W/m2 CLR
16:40 50.5 °F 25.9 °F 30.4 in Calm     38 % 0 in 114.0 W/m2 CLR
16:45 50.7 °F 26.1 °F 30.4 in Calm     38 % 0 in 102.0 W/m2 CLR
16:50 50.5 °F 25.9 °F 30.4 in Calm     38 % 0 in 90.0 W/m2 CLR
16:55 50.5 °F 25.9 °F 30.4 in Calm     38 % 0 in 69.0 W/m2 CLR
17:00 50.7 °F 25.3 °F 30.4 in Calm     37 % 0 in 60.0 W/m2 CLR
17:05 50.7 °F 25.3 °F 30.4 in Calm     37 % 0 in 58.0 W/m2 OVC
17:10 50.7 °F 25.3 °F 30.4 in Calm     37 % 0 in 46.0 W/m2 OVC
17:15 50.4 °F 25.7 °F 30.4 in Calm     38 % 0 in 39.0 W/m2 OVC
17:20 50.4 °F 26.2 °F 30.4 in Calm     39 % 0 in 32.0 W/m2 OVC
17:25 50.2 °F 26.1 °F 30.4 in Calm     39 % 0 in 26.0 W/m2 OVC
17:30 49.6 °F 27 °F 30.4 in Calm     41 % 0 in 23.0 W/m2 OVC
17:35 48.9 °F 27.5 °F 30.4 in Calm     43 % 0 in 19.0 W/m2 OVC
17:40 48 °F 27.1 °F 30.4 in Calm     44 % 0 in 14.0 W/m2 OVC
17:45 47.3 °F 26.4 °F 30.4 in Calm     44 % 0 in 11.0 W/m2 OVC
17:50 46.9 °F 26.6 °F 30.4 in Calm     45 % 0 in 7.0 W/m2 CLR
17:55 46.6 °F 26.8 °F 30.4 in Calm     46 % 0 in 5.0 W/m2 CLR
18:00 46 °F 27 °F 30.4 in Calm     47 % 0 in 0.0 W/m2 CLR
18:05 45.3 °F 26.8 °F 30.4 in Calm     48 % 0 in 0.0 W/m2 CLR
18:10 44.8 °F 26.8 °F 30.4 in Calm     49 % 0 in 0.0 W/m2 CLR
18:15 44.2 °F 26.2 °F 30.4 in Calm     49 % 0 in 0.0 W/m2 CLR
18:20 44.2 °F 26.2 °F 30.4 in Calm     49 % 0 in 0.0 W/m2 CLR
18:25 45 °F 26.4 °F 30.4 in Calm     48 % 0 in 0.0 W/m2 CLR
18:30 45 °F 26.1 °F 30.4 in Calm     47 % 0 in 0.0 W/m2 CLR
18:35 45 °F 25.9 °F 30.4 in Calm     47 % 0 in 0.0 W/m2 CLR
18:40 44.8 °F 26.2 °F 30.4 in Calm     48 % 0 in 0.0 W/m2 CLR
18:45 44.8 °F 26.2 °F 30.4 in Calm     48 % 0 in 0.0 W/m2 CLR
18:50 44.8 °F 25.9 °F 30.4 in Calm     47 % 0 in 0.0 W/m2 CLR
18:55 44.8 °F 27.3 °F 30.4 in Calm     50 % 0 in 0.0 W/m2 CLR
19:00 43.2 °F 26.8 °F 30.4 in Calm     52 % 0 in 0.0 W/m2 CLR
19:05 41.4 °F 26.4 °F 30.4 in Calm     55 % 0 in 0.0 W/m2 CLR
19:11 40.3 °F 26.6 °F 30.4 in Calm     58 % 0 in 0.0 W/m2 CLR
19:16 39.4 °F 26.8 °F 30.4 in Calm     60 % 0 in 0.0 W/m2 CLR
19:21 38.8 °F 26.6 °F 30.4 in Calm     61 % 0 in 0.0 W/m2 CLR
19:26 38.5 °F 26.2 °F 30.4 in Calm     61 % 0 in 0.0 W/m2 CLR
19:31 38.5 °F 26.4 °F 30.4 in Calm     62 % 0 in 0.0 W/m2 CLR
19:36 38.5 °F 26.4 °F 30.4 in Calm     62 % 0 in 0.0 W/m2 CLR
19:41 38.5 °F 26.6 °F 30.4 in Calm     62 % 0 in 0.0 W/m2 CLR
19:46 38.3 °F 26.4 °F 30.4 in Calm     62 % 0 in 0.0 W/m2 CLR
19:51 38.3 °F 26.8 °F 30.4 in Calm     63 % 0 in 0.0 W/m2 CLR
19:56 38.1 °F 26.6 °F 30.4 in Calm     63 % 0 in 0.0 W/m2 CLR
20:01 37.6 °F 26.4 °F 30.4 in Calm     64 % 0 in 0.0 W/m2 CLR
20:06 37 °F 26.4 °F 30.4 in Calm     65 % 0 in 0.0 W/m2 CLR
20:11 36.7 °F 26.4 °F 30.4 in Calm     66 % 0 in 0.0 W/m2 CLR
20:16 36.1 °F 26.2 °F 30.4 in Calm     67 % 0 in 0.0 W/m2 CLR
20:21 35.8 °F 26.4 °F 30.4 in Calm     69 % 0 in 0.0 W/m2 CLR
20:26 35.4 °F 26.8 °F 30.4 in Calm     70 % 0 in 0.0 W/m2 CLR
20:31 35.6 °F 26.8 °F 30.4 in Calm     70 % 0 in 0.0 W/m2 CLR
20:36 36.1 °F 27.7 °F 30.4 in Calm     71 % 0 in 0.0 W/m2 CLR
20:41 37.2 °F 28.8 °F 30.4 in Calm     71 % 0 in 0.0 W/m2 CLR
20:46 37.9 °F 28.2 °F 30.4 in Calm     68 % 0 in 0.0 W/m2 CLR
20:51 37.6 °F 27.7 °F 30.4 in Calm     67 % 0 in 0.0 W/m2 CLR
20:56 37.6 °F 28.8 °F 30.4 in Calm     70 % 0 in 0.0 W/m2 CLR
21:01 38.1 °F 29.8 °F 30.4 in Calm     72 % 0 in 0.0 W/m2 CLR
21:06 38.7 °F 30.4 °F 30.4 in Calm     72 % 0 in 0.0 W/m2 CLR
21:11 38.3 °F 28.2 °F 30.4 in Calm     67 % 0 in 0.0 W/m2 CLR
21:16 37.2 °F 27.7 °F 30.4 in Calm     68 % 0 in 0.0 W/m2 CLR
21:21 37.2 °F 30 °F 30.4 in Calm     75 % 0 in 0.0 W/m2 CLR
21:26 37.6 °F 29.7 °F 30.4 in Calm     73 % 0 in 0.0 W/m2 CLR
21:31 38.1 °F 30.9 °F 30.4 in Calm     75 % 0 in 0.0 W/m2 CLR
21:36 38.7 °F 31.8 °F 30.4 in Calm     76 % 0 in 0.0 W/m2 CLR
21:41 39.4 °F 32.4 °F 30.4 in Calm     76 % 0 in 0.0 W/m2 CLR
21:46 39.7 °F 32.7 °F 30.4 in Calm     76 % 0 in 0.0 W/m2 CLR
21:51 40.3 °F 33.3 °F 30.4 in Calm     76 % 0 in 0.0 W/m2 CLR
21:56 40.6 °F 33.6 °F 30.4 in Calm     76 % 0 in 0.0 W/m2 CLR
22:01 41.2 °F 34.2 °F 30.4 in Calm     76 % 0 in 0.0 W/m2 CLR
22:06 42.1 °F 35.2 °F 30.4 in Calm     77 % 0 in 0.0 W/m2 CLR
22:11 42.6 °F 35.6 °F 30.4 in Calm     76 % 0 in 0.0 W/m2 CLR
22:16 43 °F 35.4 °F 30.4 in Calm     75 % 0 in 0.0 W/m2 CLR
22:21 43.3 °F 36 °F 30.4 in Calm     75 % 0 in 0.0 W/m2 CLR
22:26 43.5 °F 35.4 °F 30.4 in Calm     73 % 0 in 0.0 W/m2 CLR
22:31 43.5 °F 35.4 °F 30.4 in Calm     73 % 0 in 0.0 W/m2 CLR
22:36 43.5 °F 35.4 °F 30.4 in Calm     73 % 0 in 0.0 W/m2 CLR
22:41 43.5 °F 35.4 °F 30.4 in Calm     73 % 0 in 0.0 W/m2 CLR
22:46 43.3 °F 36 °F 30.4 in Calm     75 % 0 in 0.0 W/m2 CLR
22:51 43.5 °F 36.1 °F 30.4 in Calm     75 % 0 in 0.0 W/m2 CLR
22:56 44.1 °F 36.7 °F 30.4 in Calm     75 % 0 in 0.0 W/m2 CLR
23:01 44.1 °F 36.7 °F 30.4 in Calm     75 % 0 in 0.0 W/m2 CLR
23:06 43.9 °F 36.5 °F 30.4 in Calm     75 % 0 in 0.0 W/m2 CLR
23:11 43.9 °F 36.7 °F 30.4 in Calm     76 % 0 in 0.0 W/m2 CLR
23:16 43.7 °F 36.7 °F 30.4 in Calm     76 % 0 in 0.0 W/m2 CLR
23:21 43.7 °F 36.7 °F 30.4 in Calm     76 % 0 in 0.0 W/m2 CLR
23:26 43.5 °F 36.5 °F 30.4 in Calm     76 % 0 in 0.0 W/m2 CLR
23:31 43.5 °F 37 °F 30.4 in Calm     78 % 0 in 0.0 W/m2 CLR
23:36 43.3 °F 36.7 °F 30.4 in Calm     77 % 0 in 0.0 W/m2 CLR
23:41 43.5 °F 37.6 °F 30.4 in Calm     79 % 0 in 0.0 W/m2 CLR
23:46 43.9 °F 37.4 °F 30.4 in Calm     78 % 0 in 0.0 W/m2 CLR
23:51 43.9 °F 37.6 °F 30.4 in Calm     78 % 0 in 0.0 W/m2 CLR
23:56 44.1 °F 37.8 °F 30.4 in Calm     78 % 0 in 0.0 W/m2 CLR
Lo Temps de Massalio
Compliments of Weather Underground - 1.25 mb